SCP
0 0 0 0 0 0 0 0 0 0 0 0 0 0 0 0 0 0 0 0 0 0 0 0 0 0 0 0 0 0 0 0 0 0 0 0 0 0 0 0 0 0 0 0 0 0 0 0 0 0 0 0 0 0
0 0 0 0 0 0 0 0 0 0 0 0 0 0 0 0 0 0 0 0 0 0 0 0 0 0 0 0 0 0 0 0 0 0 0 0 0 0 0 0 0 0 0 0 0 0 0 0 0 0 0 0 0 0
0 0 0 0 0 0 0 0 0 0 0 0 0 0 0 0 0 0 0 0 0 0 0 0 0 0 0 0 0 0 0 0 0 0 0 0 0 0 0 0 0 0 0 0 0 0 0 0 0 0 0 0 0 0
0 0 0 0 0 0 0 0 0 0 0 0 0 0 0 0 0 0 0 0 0 0 0 0 0 0 0 0 0 0 0 0 0 0 0 0 0 0 0 0 0 0 0 0 0 0 0 0 0 0 0 0 0 0
0 0 0 0 0 0 0 0 0 0 0 0 0 0 0 0 0 0 0 0 0 0 0 0 0 0 0 0 0 0 0 0 0 0 0 0 0 0 0 0 0 0 0 0 0 0 0 0 0 0 0 0 0 0
0 0 0 0 0 0 0 0 0 0 0 0 0 0 0 0 0 0 0 0 0 0 0 0 0 0 0 0 0 0 0 0 0 0 0 0 0 0 0 0 0 0 0 0 0 0 0 0 0 0 0 0 0 0
0 0 0 0 0 0 0 0 0 0 0 0 0 0 0 0 0 0 0 0 0 0 0 0 0 0 0 0 0 0 0 0 0 0 0 0 0 0 0 0 0 0 0 0 0 0 0 0 0 0 0 0 0 0
0 0 0 0 0 0 0 0 0 0 0 0 0 0 0 0 0 0 0 0 0 0 0 0 0 0 0 0 0 0 0 0 0 0 0 0 0 0 0 0 0 0 0 0 0 0 0 0 0 0 0 0 0 0
0 0 0 0 0 0 0 0 0 0 0 0 0 0 0 0 0 0 0 0 0 0 0 0 0 0 0 0 0 0 0 0 0 0 0 0 0 0 0 -0 0 0 0 0 0 0 0 0 0 0 0 0 0 0
0 0 0 0 0 0 0 0 0 0 0 0 0 0 0 0 0 0 0 0 0 0 0 0 0 0 0 0 0 0 0 0 0 0 0 0 0 0 0 0 0 0 0 0 0 0 0 0 0 0 0 0 0 0
0 0 0 0 0 0 0 0 0 0 0 0 0 0 0 0 0 0 0 0 0 0 0 0 0 0 0 0 0 0 0 0 0 0 0 0 0 0 0 0 0 0 0 0 0 0 0 0 0 0 0 0 0 0
0 0 0 0 0 0 0 0 0 0 0 0 0 0 0 0 0 0 0 0 0 0 0 0 0 0 0 0 0 0 0 0 0 0 0 0 0 0 0 0 0 0 0 0 0 0 0 0 0 0 0 0 0 0
0 0 0 0 0 -0 0 0 0 0 0 0 0 0 0 0 0 0 0 0 0 0 0 0 0 0 0 0 0 0 0 0 0 0 0 0 0 0 0 0 0 0 0 0 0 0 0 0 0 0 0 0 0 0
0 0 0 0 0 0 0 0 0 0 0 0 0 0 0 0 0 0 0 0 0 0 0 0 0 0 0 0 0 0 0 0 0 0 0 0 0 0 0 0 0 0 0 0 0 0 0 0 0 0 0 0 0 0
0 0 0 0 0 0 0 0 0 0 0 0 0 0 0 0 0 0 0 0 0 0 0 0 0 0 0 0 0 0 0 0 0 0 0 0 0 0 0 0 0 0 0 0 0 0 0 0 0 0 0 0 0 0
0 0 0 0 0 0 0 0 0 0 0 0 0 0 0 0 0 0 0 0 0 0 0 0 0 0 0 0 0 0 0 0 0 0 0 0 0 0 0 0 0 0 0 0 0 0 0 0 0 0 0 0 0 0
0 0 0 0 0 0 0 0 0 0 0 0 0 0 0 0 0 0 0 0 0 0 0 0 0 0 0 0 0 0 0 0 0 0 0 0 0 0 0 0 0 0 0 0 0 0 0 0 -0 0 0 0 0 0
0 0 0 0 0 0 0 0 0 0 0 0 0 0 0 0 0 0 0 0 0 0 0 0 0 0 0 0 0 0 0 0 0 0 0 0 0 0 0 0 0 0 0 0 0 0 0 0 0 0 0 0 0 0
0 0 0 0 0 0 0 0 0 0 0 0 0 0 0 0 0 0 0 0 0 0 0 0 0 0 0 0 0 0 0 0 0 0 0 0 0 0 0 0 0 0 0 0 0 0 0 0 0 0 0 0 0 0
0 0 0 0 0 0 0 0 0 0 0 0 0 0 0 0 0 0 0 0 0 0 0 0 0 0 0 0 0 0 0 0 0 0 0 0 0 0 0 0 0 0 0 0 0 0 0 0 0 0 0 0 0 0
0 0 0 0 0 0 0 0 0 0 0 0 0 0 0 0 0 0 0 0 0 0 0 0 0 0 0 0 0 0 0 0 0 0 0 0 0 0 0 0 0 0 0 0 0 0 0 0 0 0 0 0 0 0
0 0 0 0 0 0 0 0 0 0 0 0 0 0 0 0 0 0 0 0 0 0 0 0 0 0 0 0 0 0 0 0 0 0 0 0 0 0 0 0 0 0 0 0 0 0 0 0 0 0 0 0 0 0
0 0 0 0 0 0 0 0 -0 0 0 0 0 0 0 0 0 0 0 0 0 0 0 0 0 0 0 0 0 0 0 0 0 0 0 0 0 0 0 0 0 0 0 0 0 0 0 0 0 0 0 0 0 0
0 0 0 0 0 -0 0 0 0 0 0 0 0 0 0 0 0 0 0 0 0 0 0 0 0 0 0 0 0 0 0 0 0 0 0 0 0 0 0 0 0 0 0 0 0 0 0 0 0 0 0 0 0 0
0 0 0 0 0 0 0 0 0 -0 0 0 0 0 0 0 0 0 0 0 0 0 0 0 0 0 0 0 0 0 0 0 0 0 0 0 0 0 0 0 0 0 0 0 0 0 0 0 0 0 0 0 0 0
-0 0 0 0 0 0 0 0 0 -0 -0 -0 -0 -0 0 0 0 0 -0 0 0 0 0 0 0 0 0 0 0 0 0 0 0 0 0 0 0 0 0 0 0 0 0 0 0 0 0 0 0 0 0 0 0 0
-0 0 0 0 0 0 0 0 0 0 -0 -0 -0 0 0 0 0 0 0 0 0 0 0 -0 0 0 0 0 0 -0 0 0 0 0 0 0 0 0 0 0 0 0 0 0 0 0 0 0 0 0 0 0 0 0
0 0 0 -0 -0 0 -0 -0 -0 -0 -0 0 0 0 -0 -0 0 0 -0 0 0 0 0 0 0 0 0 0 0 0 0 0 0 0 0 0 0 0 0 0 0 0 0 0 0 0 0 0 0 0 0 0 0 0
0 0 0 -0 -0 -0 -0 0 0 0 0 -0 -0 -0 -0 0 0 0 0 0 0 0 0 0 0 0 0 0 0 0 0 0 0 0 0 0 0 0 0 0 0 0 0 0 0 0 0 0 0 0 0 0 0 0
0 0 0 0 -0 0 0 0 0 0 0 0 -0 -0 -0 -0 0 0 0 0 0 0 0 0 0 0 0 0 0 0 0 0 0 0 0 0 0 0 0 0 0 0 0 0 0 0 0 0 0 0 0 0 0 0
0 -0 0 -0 -0 -0 0 0 0 0 0 0 0 0 0 0 0 0 0 0 0 0 0 0 0 0 0 0 0 0 0 0 0 0 0 0 0 0 0 0 0 0 0 0 0 0 0 0 0 0 0 0 0 0
0 0 -0 0 0 -0 -0 -0 -0 -0 -0 0 0 0 0 0 0 0 0 0 0 0 0 0 0 0 0 0 0 0 0 0 0 0 0 0 0 0 0 0 0 0 0 0 0 0 0 0 0 0 0 0 0 0
0 0 0 0 0 0 0 0 0 0 0 0 0 0 0 0 0 0 0 0 0 0 0 0 0 0 0 0 0 0 0 0 0 0 0 0 0 0 0 0 0 0 0 0 0 0 0 0 0 0 0 0 0 0
Wind_Speed_500mb
16 19 23 18 16 18 17 15 13 14 18 16 15 10 7 8 5 5 11 17 12 11 13 14 13 13 11 11 6 11 11 2 3 6 4 5 6 10 8 7 13 16 14 8 5 4 33 16 13 34 21 7 12 9
21 16 16 23 20 16 19 20 18 15 14 13 13 13 10 8 5 10 12 16 15 10 14 18 24 23 18 10 16 11 5 4 5 7 3 4 4 3 8 6 1 6 11 14 25 28 2 15 5 14 9 10 10 10
11 15 19 14 18 22 18 21 18 20 18 15 12 11 13 10 6 11 15 20 24 16 18 13 12 20 21 16 14 11 5 8 7 7 5 4 6 4 8 8 5 4 2 5 6 5 3 11 13 18 15 9 10 11
14 10 8 13 13 17 20 18 20 17 14 20 15 12 12 15 11 7 17 20 17 14 7 2 13 18 18 19 13 13 21 21 17 7 5 4 5 3 1 4 5 3 4 7 9 6 4 9 25 21 14 21 23 22
15 14 11 8 8 11 16 13 14 20 22 17 18 17 14 13 12 11 14 21 23 6 8 8 15 11 20 17 19 25 33 33 22 7 5 3 3 6 4 3 3 11 10 6 4 4 7 10 18 16 17 15 15 14
15 12 12 14 13 9 10 8 11 12 18 26 23 22 20 16 15 12 6 7 24 16 8 5 7 8 17 22 21 20 19 21 10 8 5 7 8 4 6 5 11 23 25 21 13 10 13 1 12 8 14 9 7 7
15 14 16 14 9 3 2 5 8 15 17 29 30 28 26 23 19 8 6 7 24 18 7 6 5 8 25 24 16 16 15 8 8 8 4 8 4 6 5 6 8 8 22 20 10 11 14 24 18 23 20 15 20 18
14 13 9 6 6 6 5 10 12 15 19 25 34 32 28 23 25 16 7 10 34 16 8 6 3 4 17 7 7 9 9 9 5 7 7 4 6 5 5 14 16 11 10 13 19 22 20 15 19 23 28 26 27 29
6 8 9 8 5 12 15 12 14 18 20 29 36 36 29 22 16 20 23 22 21 6 7 5 9 8 18 8 8 7 6 4 3 3 3 11 2 7 12 20 27 25 17 16 22 18 13 3 1 5 11 20 27 31
2 6 12 12 7 16 18 15 11 24 29 35 41 18 12 28 22 25 15 13 9 5 5 3 12 6 14 6 6 10 2 6 6 7 14 4 7 30 21 18 14 18 18 12 16 12 12 9 8 15 20 18 20 26
5 9 10 10 12 20 9 17 23 32 42 42 12 7 48 47 18 9 4 5 5 3 8 6 6 8 12 6 5 7 6 2 5 8 9 4 8 8 36 47 37 27 26 29 28 27 17 21 25 25 29 30 30 31
7 8 8 11 13 22 13 15 38 40 38 16 29 45 37 10 8 6 4 3 5 10 7 7 7 9 10 7 7 3 5 4 7 7 6 5 7 4 4 16 27 38 39 38 39 39 39 38 36 35 37 36 31 31
8 8 9 12 13 24 21 28 41 55 43 43 19 10 9 5 7 8 7 6 3 7 16 13 5 7 7 5 9 5 6 6 10 5 7 9 5 10 10 8 6 8 18 28 35 39 40 40 40 41 41 41 40 36
5 3 2 4 3 10 11 8 42 48 41 9 7 7 6 2 6 8 10 9 8 13 35 33 13 7 6 4 4 8 4 7 4 5 12 3 7 12 12 10 12 6 4 7 11 15 20 25 29 33 36 39 40 39
7 4 4 3 10 9 10 13 57 51 11 9 8 7 5 5 10 10 14 14 11 31 34 16 10 7 2 4 4 6 4 7 9 10 6 6 8 9 9 10 11 11 11 10 10 10 12 14 18 22 25 29 32 36
6 6 14 10 7 14 10 10 51 29 10 8 10 7 7 7 7 10 16 15 16 28 17 10 5 6 4 6 5 9 12 12 7 4 6 4 5 8 9 10 11 11 11 10 14 16 18 20 25 27 29 28 29 32
5 10 12 3 9 10 6 22 23 13 11 9 8 19 13 16 11 7 6 8 16 9 3 5 8 8 3 5 5 6 9 4 9 11 9 7 5 6 7 8 7 7 5 5 9 14 20 26 29 31 31 32 31 29
6 8 7 4 7 11 16 15 14 15 17 19 9 14 21 17 11 10 9 12 7 5 3 4 9 6 6 7 3 4 5 7 11 9 12 11 9 8 6 4 3 4 7 9 13 18 23 27 29 30 31 31 30 27
12 15 10 9 10 5 9 15 15 13 13 10 13 13 10 12 22 17 11 11 16 16 9 5 8 3 3 4 3 4 7 8 5 6 4 7 8 7 7 4 6 9 11 13 16 19 21 23 26 29 30 29 26 23
29 26 19 16 3 9 12 14 13 15 9 9 11 12 10 12 15 23 20 13 12 8 16 9 4 3 3 5 7 6 6 7 8 0 6 6 14 14 11 10 10 9 10 12 14 16 18 20 22 23 24 23 23 21
27 30 27 12 23 27 17 12 15 13 10 10 9 10 10 14 14 17 18 17 16 14 5 10 9 10 9 5 5 7 7 9 8 7 12 15 17 16 15 15 14 15 16 17 18 18 18 18 18 18 17 17 17 16
33 35 24 22 17 14 17 21 12 8 7 8 8 10 13 8 13 17 16 26 13 11 10 14 14 12 7 7 8 9 10 9 8 10 13 15 14 11 13 16 17 18 19 18 16 15 15 15 14 12 11 10 9 9
34 20 16 18 13 16 9 13 9 12 8 5 6 7 7 8 11 11 13 12 9 17 18 17 14 11 7 6 9 10 10 8 6 7 7 9 11 12 13 14 14 13 12 13 11 10 8 6 6 6 5 5 6 7
15 14 19 16 24 7 8 13 11 10 9 8 6 5 7 10 11 12 6 5 13 20 19 17 14 8 7 8 10 9 10 9 8 9 9 9 9 8 7 7 8 8 8 7 6 5 5 6 6 6 7 7 9 10
12 28 18 16 20 13 12 9 11 8 7 7 6 6 6 11 4 7 3 10 22 19 19 16 14 11 11 9 10 9 10 10 9 8 9 8 7 7 6 5 6 8 9 9 8 8 8 8 8 9 9 10 11 12
18 25 14 13 12 10 5 6 8 5 5 7 5 15 9 4 8 2 4 16 21 21 23 20 16 11 11 15 14 12 12 12 12 11 10 11 10 10 10 9 9 8 10 11 11 10 11 11 12 12 13 14 14 15
13 10 16 20 10 6 7 7 5 9 8 9 6 9 5 8 6 4 12 14 23 25 20 17 15 15 16 15 14 15 15 14 13 14 14 13 12 11 10 10 11 11 12 12 12 13 13 14 15 16 17 18 19 20
13 21 9 23 10 12 4 6 8 7 5 11 7 10 6 4 2 14 13 27 26 23 20 18 17 16 16 16 16 16 15 16 17 16 14 12 12 12 13 13 14 15 14 14 14 15 16 17 18 19 20 21 22 24
12 31 15 11 7 14 15 7 3 6 13 6 2 2 2 5 13 18 22 23 21 20 19 18 17 17 17 17 17 15 15 14 13 11 10 10 10 10 11 13 15 15 16 17 18 19 21 23 25 26 26 27 27 29
19 35 14 13 8 7 11 14 12 12 12 10 3 2 3 7 16 24 28 29 28 28 27 26 24 24 23 20 17 16 17 16 15 16 15 13 15 16 18 18 19 19 20 21 22 24 27 30 32 36 38 37 37 38
23 22 9 12 6 10 15 19 11 12 9 9 8 5 6 8 9 25 30 36 31 31 27 24 22 24 23 23 23 20 18 19 20 21 21 22 22 23 24 25 26 27 28 30 31 33 35 37 39 41 43 44 44 46
23 19 12 8 5 13 13 23 11 7 10 9 10 13 10 8 9 16 30 31 38 34 32 30 28 26 25 25 25 25 25 25 26 29 31 31 31 31 34 34 36 38 39 39 40 41 42 44 44 44 46 46 45 46
11 12 10 9 7 7 15 21 8 10 4 5 7 12 11 5 5 20 30 33 43 39 30 25 27 29 26 30 28 24 28 30 30 31 33 35 35 35 36 35 37 40 42 43 42 43 45 46 49 49 50 52 54 54
Wind_Direction_500mb
169 178 170 150 152 150 152 151 145 163 176 179 189 174 151 178 182 160 168 143 96 91 107 108 119 131 104 100 121 150 116 168 85 162 149 173 124 208 119 158 172 156 147 172 98 98 258 167 114 165 213 158 167 167
73 120 167 179 182 178 166 148 149 148 161 166 193 198 172 158 152 165 162 164 137 109 130 118 110 118 134 138 124 137 110 86 105 129 139 85 72 46 157 207 314 197 183 175 187 211 238 178 161 190 179 209 210 224
85 59 85 141 174 190 175 176 165 164 163 162 155 156 172 165 150 162 149 157 152 103 93 108 112 107 114 130 171 125 109 98 64 80 116 113 134 126 172 227 102 283 0 165 97 283 184 203 200 216 228 249 260 257
163 145 97 99 124 178 188 170 165 171 176 175 175 159 150 173 165 147 150 154 139 125 113 154 145 147 129 119 123 162 159 144 116 96 89 99 113 117 280 116 141 145 94 163 281 291 342 291 259 253 275 274 274 274
145 144 154 151 115 120 141 145 180 207 200 194 185 178 163 168 174 161 143 168 175 125 136 110 148 128 163 139 107 124 145 146 136 110 58 91 128 118 339 47 280 188 162 166 220 7 63 18 16 232 252 271 266 257
85 139 154 147 132 115 123 156 182 184 199 196 197 186 174 171 171 147 119 172 176 109 103 91 105 122 151 161 147 131 119 114 121 110 129 125 172 167 122 190 264 204 185 172 189 206 241 17 7 326 320 288 296 283
76 62 67 83 96 80 218 345 246 212 200 194 195 191 180 176 163 150 137 152 171 145 93 80 39 100 139 143 139 149 145 117 104 120 87 132 132 150 96 172 254 222 222 221 210 180 208 214 208 205 225 256 255 258
77 64 59 47 27 330 320 321 234 209 203 190 190 180 176 166 162 149 94 137 161 125 94 104 79 128 157 116 102 123 126 128 108 121 124 109 110 78 243 238 205 189 191 226 234 234 248 272 263 243 236 237 236 249
45 28 15 17 327 302 298 281 246 213 192 183 178 167 166 167 158 158 142 151 155 121 119 105 139 170 160 103 119 109 132 67 155 97 217 145 271 218 212 205 210 220 225 257 229 225 222 270 305 276 277 264 256 257
318 350 336 349 328 310 301 288 247 183 184 173 168 155 143 142 154 164 172 149 151 177 126 148 129 146 158 112 134 121 126 143 172 236 142 109 250 246 235 223 227 224 224 211 194 216 226 245 299 314 309 300 291 282
277 293 327 350 343 319 296 312 199 169 165 158 141 96 132 133 119 139 136 124 98 49 194 187 159 135 171 121 151 166 154 133 128 245 143 233 265 249 245 242 239 241 242 250 260 277 289 294 296 293 295 295 291 278
316 295 317 329 327 322 315 240 174 178 162 136 127 129 119 109 87 117 147 6 84 206 168 136 119 113 127 147 102 155 145 67 212 150 124 248 248 33 272 221 231 236 238 241 248 255 261 267 270 275 280 287 290 287
327 326 321 324 323 323 352 186 165 170 157 128 126 107 125 118 88 151 152 304 124 183 162 153 95 107 121 132 73 87 100 206 126 152 218 228 56 68 79 134 168 211 236 241 245 253 260 266 271 275 278 279 281 281
319 308 336 326 1 340 291 178 162 150 141 99 118 85 103 146 203 181 176 182 168 184 154 136 115 125 119 93 142 121 223 106 95 148 226 244 102 91 85 94 158 152 199 253 266 272 274 275 276 276 275 275 276 277
148 131 97 355 357 3 347 94 154 154 100 95 105 135 176 141 73 100 110 117 92 152 144 111 81 110 85 112 129 110 97 198 202 218 226 137 111 118 112 105 99 97 85 71 53 24 1 341 323 307 291 279 273 268
128 83 57 61 27 27 40 93 149 126 77 87 57 86 36 68 357 54 62 83 103 138 124 98 115 82 240 156 98 206 144 208 234 25 65 126 104 94 101 96 95 78 63 35 13 358 350 343 334 325 316 301 287 274
41 53 60 57 44 46 79 104 109 72 71 57 59 66 86 74 84 56 69 74 133 157 151 121 103 189 107 86 187 160 202 230 330 359 19 32 37 64 82 84 74 69 59 6 355 345 338 335 335 334 327 318 304 286
345 95 149 94 67 94 78 45 72 68 58 35 54 23 46 51 51 41 63 83 109 82 47 145 133 74 169 171 199 54 60 58 59 44 23 19 8 10 21 28 357 324 316 324 322 321 320 319 319 322 320 316 308 296
143 149 176 139 143 80 66 41 45 91 73 77 70 66 80 91 64 47 54 101 96 91 103 60 81 131 103 23 37 57 33 25 331 326 343 13 8 356 342 308 261 268 279 290 289 290 295 301 308 311 312 310 300 288
141 152 139 144 85 78 71 43 46 74 68 49 36 39 51 49 48 49 57 82 86 51 43 37 66 36 22 340 336 324 336 345 352 69 230 324 340 348 350 346 331 323 309 298 295 302 306 305 305 305 305 301 290 279
108 120 127 92 50 58 70 46 59 62 80 77 53 40 41 35 36 34 30 34 58 39 45 38 19 3 345 344 354 348 335 328 321 315 303 313 322 335 344 336 333 328 324 322 322 321 319 314 309 307 302 294 286 273
108 114 93 53 62 65 64 39 65 60 61 67 48 40 45 33 18 8 14 46 57 28 8 356 356 0 2 6 1 352 345 333 318 314 315 317 332 332 325 330 331 325 322 320 319 316 315 314 311 307 304 294 279 260
109 91 57 42 70 48 35 32 58 31 61 12 43 47 30 32 16 11 70 56 57 7 4 3 358 351 355 14 6 356 353 346 330 317 320 335 341 345 339 334 330 325 320 317 313 312 311 304 291 278 260 246 236 232
73 54 35 41 33 41 19 32 37 29 48 31 37 35 11 353 8 60 71 39 357 358 3 5 6 8 0 7 14 9 4 2 8 356 352 360 1 350 348 345 342 331 317 306 296 299 290 279 264 252 250 247 243 238
70 14 27 11 18 22 28 17 2 27 48 349 30 25 4 349 60 52 29 333 350 353 357 357 353 358 12 11 353 354 354 354 351 345 351 350 352 343 331 341 348 338 322 310 299 291 284 273 267 264 260 257 255 254
66 21 38 356 7 44 327 44 20 3 4 23 7 326 340 29 59 3 269 327 331 338 344 348 350 355 349 347 345 342 341 339 338 331 326 320 310 325 331 323 319 314 309 293 287 280 275 273 270 266 262 260 259 260
49 351 16 24 7 354 38 57 63 62 50 13 326 339 1 65 41 308 322 341 341 342 338 331 327 327 328 328 323 319 319 319 319 315 313 313 310 305 301 299 301 296 297 292 281 280 280 277 275 272 272 269 268 269
61 26 12 340 19 24 108 54 41 25 322 345 290 20 80 53 341 338 332 339 346 348 348 346 344 340 337 335 333 330 326 322 320 320 317 305 303 301 302 302 297 295 295 296 295 291 286 282 280 280 279 280 282 283
27 352 350 358 27 48 46 52 7 7 350 339 97 330 340 36 3 2 5 7 10 10 10 6 359 358 354 350 345 340 335 332 328 324 322 319 318 314 307 302 298 294 292 291 290 289 290 288 288 290 291 290 288 287
359 0 5 14 57 24 18 14 356 349 3 7 354 33 55 61 35 29 26 22 19 15 11 8 6 6 4 1 356 344 343 342 342 338 331 320 314 312 311 308 304 301 299 297 295 294 294 294 295 296 298 297 296 295
353 352 4 27 68 23 1 2 0 11 18 18 23 351 332 320 19 24 24 21 17 12 9 6 357 352 349 343 343 343 341 336 330 324 319 315 310 307 304 303 302 300 298 296 295 294 293 291 291 291 290 292 293 293
358 9 7 17 20 353 357 356 348 349 2 12 13 14 2 360 360 9 6 7 8 7 3 3 2 360 356 354 345 338 334 329 323 320 317 315 313 308 304 302 301 299 299 298 297 297 296 296 295 295 296 296 296 295
338 354 4 339 333 4 347 347 357 357 360 10 12 13 17 7 352 359 359 357 360 355 354 357 355 352 348 346 341 337 335 331 326 321 316 313 311 308 304 302 298 297 297 297 297 296 296 296 295 296 295 295 296 296
Wind_Speed_850mb
16 19 23 18 16 18 17 15 13 14 18 16 15 10 7 8 5 5 11 17 12 11 13 14 13 13 11 11 6 11 11 2 3 6 4 5 6 10 8 7 13 16 14 8 5 4 33 16 13 34 21 7 12 9
21 16 16 23 20 16 19 20 18 15 14 13 13 13 10 8 5 10 12 16 15 10 14 18 24 23 18 10 16 11 5 4 5 7 3 4 4 3 8 6 1 6 11 14 25 28 2 15 5 14 9 10 10 10
11 15 19 14 18 22 18 21 18 20 18 15 12 11 13 10 6 11 15 20 24 16 18 13 12 20 21 16 14 11 5 8 7 7 5 4 6 4 8 8 5 4 2 5 6 5 3 11 13 18 15 9 10 11
14 10 8 13 13 17 20 18 20 17 14 20 15 12 12 15 11 7 17 20 17 14 7 2 13 18 18 19 13 13 21 21 17 7 5 4 5 3 1 4 5 3 4 7 9 6 4 9 25 21 14 21 23 22
15 14 11 8 8 11 16 13 14 20 22 17 18 17 14 13 12 11 14 21 23 6 8 8 15 11 20 17 19 25 33 33 22 7 5 3 3 6 4 3 3 11 10 6 4 4 7 10 18 16 17 15 15 14
15 12 12 14 13 9 10 8 11 12 18 26 23 22 20 16 15 12 6 7 24 16 8 5 7 8 17 22 21 20 19 21 10 8 5 7 8 4 6 5 11 23 25 21 13 10 13 1 12 8 14 9 7 7
15 14 16 14 9 3 2 5 8 15 17 29 30 28 26 23 19 8 6 7 24 18 7 6 5 8 25 24 16 16 15 8 8 8 4 8 4 6 5 6 8 8 22 20 10 11 14 24 18 23 20 15 20 18
14 13 9 6 6 6 5 10 12 15 19 25 34 32 28 23 25 16 7 10 34 16 8 6 3 4 17 7 7 9 9 9 5 7 7 4 6 5 5 14 16 11 10 13 19 22 20 15 19 23 28 26 27 29
6 8 9 8 5 12 15 12 14 18 20 29 36 36 29 22 16 20 23 22 21 6 7 5 9 8 18 8 8 7 6 4 3 3 3 11 2 7 12 20 27 25 17 16 22 18 13 3 1 5 11 20 27 31
2 6 12 12 7 16 18 15 11 24 29 35 41 18 12 28 22 25 15 13 9 5 5 3 12 6 14 6 6 10 2 6 6 7 14 4 7 30 21 18 14 18 18 12 16 12 12 9 8 15 20 18 20 26
5 9 10 10 12 20 9 17 23 32 42 42 12 7 48 47 18 9 4 5 5 3 8 6 6 8 12 6 5 7 6 2 5 8 9 4 8 8 36 47 37 27 26 29 28 27 17 21 25 25 29 30 30 31
7 8 8 11 13 22 13 15 38 40 38 16 29 45 37 10 8 6 4 3 5 10 7 7 7 9 10 7 7 3 5 4 7 7 6 5 7 4 4 16 27 38 39 38 39 39 39 38 36 35 37 36 31 31
8 8 9 12 13 24 21 28 41 55 43 43 19 10 9 5 7 8 7 6 3 7 16 13 5 7 7 5 9 5 6 6 10 5 7 9 5 10 10 8 6 8 18 28 35 39 40 40 40 41 41 41 40 36
5 3 2 4 3 10 11 8 42 48 41 9 7 7 6 2 6 8 10 9 8 13 35 33 13 7 6 4 4 8 4 7 4 5 12 3 7 12 12 10 12 6 4 7 11 15 20 25 29 33 36 39 40 39
7 4 4 3 10 9 10 13 57 51 11 9 8 7 5 5 10 10 14 14 11 31 34 16 10 7 2 4 4 6 4 7 9 10 6 6 8 9 9 10 11 11 11 10 10 10 12 14 18 22 25 29 32 36
6 6 14 10 7 14 10 10 51 29 10 8 10 7 7 7 7 10 16 15 16 28 17 10 5 6 4 6 5 9 12 12 7 4 6 4 5 8 9 10 11 11 11 10 14 16 18 20 25 27 29 28 29 32
5 10 12 3 9 10 6 22 23 13 11 9 8 19 13 16 11 7 6 8 16 9 3 5 8 8 3 5 5 6 9 4 9 11 9 7 5 6 7 8 7 7 5 5 9 14 20 26 29 31 31 32 31 29
6 8 7 4 7 11 16 15 14 15 17 19 9 14 21 17 11 10 9 12 7 5 3 4 9 6 6 7 3 4 5 7 11 9 12 11 9 8 6 4 3 4 7 9 13 18 23 27 29 30 31 31 30 27
12 15 10 9 10 5 9 15 15 13 13 10 13 13 10 12 22 17 11 11 16 16 9 5 8 3 3 4 3 4 7 8 5 6 4 7 8 7 7 4 6 9 11 13 16 19 21 23 26 29 30 29 26 23
29 26 19 16 3 9 12 14 13 15 9 9 11 12 10 12 15 23 20 13 12 8 16 9 4 3 3 5 7 6 6 7 8 0 6 6 14 14 11 10 10 9 10 12 14 16 18 20 22 23 24 23 23 21
27 30 27 12 23 27 17 12 15 13 10 10 9 10 10 14 14 17 18 17 16 14 5 10 9 10 9 5 5 7 7 9 8 7 12 15 17 16 15 15 14 15 16 17 18 18 18 18 18 18 17 17 17 16
33 35 24 22 17 14 17 21 12 8 7 8 8 10 13 8 13 17 16 26 13 11 10 14 14 12 7 7 8 9 10 9 8 10 13 15 14 11 13 16 17 18 19 18 16 15 15 15 14 12 11 10 9 9
34 20 16 18 13 16 9 13 9 12 8 5 6 7 7 8 11 11 13 12 9 17 18 17 14 11 7 6 9 10 10 8 6 7 7 9 11 12 13 14 14 13 12 13 11 10 8 6 6 6 5 5 6 7
15 14 19 16 24 7 8 13 11 10 9 8 6 5 7 10 11 12 6 5 13 20 19 17 14 8 7 8 10 9 10 9 8 9 9 9 9 8 7 7 8 8 8 7 6 5 5 6 6 6 7 7 9 10
12 28 18 16 20 13 12 9 11 8 7 7 6 6 6 11 4 7 3 10 22 19 19 16 14 11 11 9 10 9 10 10 9 8 9 8 7 7 6 5 6 8 9 9 8 8 8 8 8 9 9 10 11 12
18 25 14 13 12 10 5 6 8 5 5 7 5 15 9 4 8 2 4 16 21 21 23 20 16 11 11 15 14 12 12 12 12 11 10 11 10 10 10 9 9 8 10 11 11 10 11 11 12 12 13 14 14 15
13 10 16 20 10 6 7 7 5 9 8 9 6 9 5 8 6 4 12 14 23 25 20 17 15 15 16 15 14 15 15 14 13 14 14 13 12 11 10 10 11 11 12 12 12 13 13 14 15 16 17 18 19 20
13 21 9 23 10 12 4 6 8 7 5 11 7 10 6 4 2 14 13 27 26 23 20 18 17 16 16 16 16 16 15 16 17 16 14 12 12 12 13 13 14 15 14 14 14 15 16 17 18 19 20 21 22 24
12 31 15 11 7 14 15 7 3 6 13 6 2 2 2 5 13 18 22 23 21 20 19 18 17 17 17 17 17 15 15 14 13 11 10 10 10 10 11 13 15 15 16 17 18 19 21 23 25 26 26 27 27 29
19 35 14 13 8 7 11 14 12 12 12 10 3 2 3 7 16 24 28 29 28 28 27 26 24 24 23 20 17 16 17 16 15 16 15 13 15 16 18 18 19 19 20 21 22 24 27 30 32 36 38 37 37 38
23 22 9 12 6 10 15 19 11 12 9 9 8 5 6 8 9 25 30 36 31 31 27 24 22 24 23 23 23 20 18 19 20 21 21 22 22 23 24 25 26 27 28 30 31 33 35 37 39 41 43 44 44 46
23 19 12 8 5 13 13 23 11 7 10 9 10 13 10 8 9 16 30 31 38 34 32 30 28 26 25 25 25 25 25 25 26 29 31 31 31 31 34 34 36 38 39 39 40 41 42 44 44 44 46 46 45 46
11 12 10 9 7 7 15 21 8 10 4 5 7 12 11 5 5 20 30 33 43 39 30 25 27 29 26 30 28 24 28 30 30 31 33 35 35 35 36 35 37 40 42 43 42 43 45 46 49 49 50 52 54 54
Wind_Direction_850mb
169 178 170 150 152 150 152 151 145 163 176 179 189 174 151 178 182 160 168 143 96 91 107 108 119 131 104 100 121 150 116 168 85 162 149 173 124 208 119 158 172 156 147 172 98 98 258 167 114 165 213 158 167 167
73 120 167 179 182 178 166 148 149 148 161 166 193 198 172 158 152 165 162 164 137 109 130 118 110 118 134 138 124 137 110 86 105 129 139 85 72 46 157 207 314 197 183 175 187 211 238 178 161 190 179 209 210 224
85 59 85 141 174 190 175 176 165 164 163 162 155 156 172 165 150 162 149 157 152 103 93 108 112 107 114 130 171 125 109 98 64 80 116 113 134 126 172 227 102 283 0 165 97 283 184 203 200 216 228 249 260 257
163 145 97 99 124 178 188 170 165 171 176 175 175 159 150 173 165 147 150 154 139 125 113 154 145 147 129 119 123 162 159 144 116 96 89 99 113 117 280 116 141 145 94 163 281 291 342 291 259 253 275 274 274 274
145 144 154 151 115 120 141 145 180 207 200 194 185 178 163 168 174 161 143 168 175 125 136 110 148 128 163 139 107 124 145 146 136 110 58 91 128 118 339 47 280 188 162 166 220 7 63 18 16 232 252 271 266 257
85 139 154 147 132 115 123 156 182 184 199 196 197 186 174 171 171 147 119 172 176 109 103 91 105 122 151 161 147 131 119 114 121 110 129 125 172 167 122 190 264 204 185 172 189 206 241 17 7 326 320 288 296 283
76 62 67 83 96 80 218 345 246 212 200 194 195 191 180 176 163 150 137 152 171 145 93 80 39 100 139 143 139 149 145 117 104 120 87 132 132 150 96 172 254 222 222 221 210 180 208 214 208 205 225 256 255 258
77 64 59 47 27 330 320 321 234 209 203 190 190 180 176 166 162 149 94 137 161 125 94 104 79 128 157 116 102 123 126 128 108 121 124 109 110 78 243 238 205 189 191 226 234 234 248 272 263 243 236 237 236 249
45 28 15 17 327 302 298 281 246 213 192 183 178 167 166 167 158 158 142 151 155 121 119 105 139 170 160 103 119 109 132 67 155 97 217 145 271 218 212 205 210 220 225 257 229 225 222 270 305 276 277 264 256 257
318 350 336 349 328 310 301 288 247 183 184 173 168 155 143 142 154 164 172 149 151 177 126 148 129 146 158 112 134 121 126 143 172 236 142 109 250 246 235 223 227 224 224 211 194 216 226 245 299 314 309 300 291 282
277 293 327 350 343 319 296 312 199 169 165 158 141 96 132 133 119 139 136 124 98 49 194 187 159 135 171 121 151 166 154 133 128 245 143 233 265 249 245 242 239 241 242 250 260 277 289 294 296 293 295 295 291 278
316 295 317 329 327 322 315 240 174 178 162 136 127 129 119 109 87 117 147 6 84 206 168 136 119 113 127 147 102 155 145 67 212 150 124 248 248 33 272 221 231 236 238 241 248 255 261 267 270 275 280 287 290 287
327 326 321 324 323 323 352 186 165 170 157 128 126 107 125 118 88 151 152 304 124 183 162 153 95 107 121 132 73 87 100 206 126 152 218 228 56 68 79 134 168 211 236 241 245 253 260 266 271 275 278 279 281 281
319 308 336 326 1 340 291 178 162 150 141 99 118 85 103 146 203 181 176 182 168 184 154 136 115 125 119 93 142 121 223 106 95 148 226 244 102 91 85 94 158 152 199 253 266 272 274 275 276 276 275 275 276 277
148 131 97 355 357 3 347 94 154 154 100 95 105 135 176 141 73 100 110 117 92 152 144 111 81 110 85 112 129 110 97 198 202 218 226 137 111 118 112 105 99 97 85 71 53 24 1 341 323 307 291 279 273 268
128 83 57 61 27 27 40 93 149 126 77 87 57 86 36 68 357 54 62 83 103 138 124 98 115 82 240 156 98 206 144 208 234 25 65 126 104 94 101 96 95 78 63 35 13 358 350 343 334 325 316 301 287 274
41 53 60 57 44 46 79 104 109 72 71 57 59 66 86 74 84 56 69 74 133 157 151 121 103 189 107 86 187 160 202 230 330 359 19 32 37 64 82 84 74 69 59 6 355 345 338 335 335 334 327 318 304 286
345 95 149 94 67 94 78 45 72 68 58 35 54 23 46 51 51 41 63 83 109 82 47 145 133 74 169 171 199 54 60 58 59 44 23 19 8 10 21 28 357 324 316 324 322 321 320 319 319 322 320 316 308 296
143 149 176 139 143 80 66 41 45 91 73 77 70 66 80 91 64 47 54 101 96 91 103 60 81 131 103 23 37 57 33 25 331 326 343 13 8 356 342 308 261 268 279 290 289 290 295 301 308 311 312 310 300 288
141 152 139 144 85 78 71 43 46 74 68 49 36 39 51 49 48 49 57 82 86 51 43 37 66 36 22 340 336 324 336 345 352 69 230 324 340 348 350 346 331 323 309 298 295 302 306 305 305 305 305 301 290 279
108 120 127 92 50 58 70 46 59 62 80 77 53 40 41 35 36 34 30 34 58 39 45 38 19 3 345 344 354 348 335 328 321 315 303 313 322 335 344 336 333 328 324 322 322 321 319 314 309 307 302 294 286 273
108 114 93 53 62 65 64 39 65 60 61 67 48 40 45 33 18 8 14 46 57 28 8 356 356 0 2 6 1 352 345 333 318 314 315 317 332 332 325 330 331 325 322 320 319 316 315 314 311 307 304 294 279 260
109 91 57 42 70 48 35 32 58 31 61 12 43 47 30 32 16 11 70 56 57 7 4 3 358 351 355 14 6 356 353 346 330 317 320 335 341 345 339 334 330 325 320 317 313 312 311 304 291 278 260 246 236 232
73 54 35 41 33 41 19 32 37 29 48 31 37 35 11 353 8 60 71 39 357 358 3 5 6 8 0 7 14 9 4 2 8 356 352 360 1 350 348 345 342 331 317 306 296 299 290 279 264 252 250 247 243 238
70 14 27 11 18 22 28 17 2 27 48 349 30 25 4 349 60 52 29 333 350 353 357 357 353 358 12 11 353 354 354 354 351 345 351 350 352 343 331 341 348 338 322 310 299 291 284 273 267 264 260 257 255 254
66 21 38 356 7 44 327 44 20 3 4 23 7 326 340 29 59 3 269 327 331 338 344 348 350 355 349 347 345 342 341 339 338 331 326 320 310 325 331 323 319 314 309 293 287 280 275 273 270 266 262 260 259 260
49 351 16 24 7 354 38 57 63 62 50 13 326 339 1 65 41 308 322 341 341 342 338 331 327 327 328 328 323 319 319 319 319 315 313 313 310 305 301 299 301 296 297 292 281 280 280 277 275 272 272 269 268 269
61 26 12 340 19 24 108 54 41 25 322 345 290 20 80 53 341 338 332 339 346 348 348 346 344 340 337 335 333 330 326 322 320 320 317 305 303 301 302 302 297 295 295 296 295 291 286 282 280 280 279 280 282 283
27 352 350 358 27 48 46 52 7 7 350 339 97 330 340 36 3 2 5 7 10 10 10 6 359 358 354 350 345 340 335 332 328 324 322 319 318 314 307 302 298 294 292 291 290 289 290 288 288 290 291 290 288 287
359 0 5 14 57 24 18 14 356 349 3 7 354 33 55 61 35 29 26 22 19 15 11 8 6 6 4 1 356 344 343 342 342 338 331 320 314 312 311 308 304 301 299 297 295 294 294 294 295 296 298 297 296 295
353 352 4 27 68 23 1 2 0 11 18 18 23 351 332 320 19 24 24 21 17 12 9 6 357 352 349 343 343 343 341 336 330 324 319 315 310 307 304 303 302 300 298 296 295 294 293 291 291 291 290 292 293 293
358 9 7 17 20 353 357 356 348 349 2 12 13 14 2 360 360 9 6 7 8 7 3 3 2 360 356 354 345 338 334 329 323 320 317 315 313 308 304 302 301 299 299 298 297 297 296 296 295 295 296 296 296 295
338 354 4 339 333 4 347 347 357 357 360 10 12 13 17 7 352 359 359 357 360 355 354 357 355 352 348 346 341 337 335 331 326 321 316 313 311 308 304 302 298 297 297 297 297 296 296 296 295 296 295 295 296 296